www.pogodaiklimat.ru

Погода и климат >> Архив погоды >> Австралия >> Geraldton Airport


ПОГОДА в Geraldton Airport

  • Прогноз погоды в Geraldton Airport
  • Монитор погоды в Geraldton Airport
  • Климат города

АРХИВ ПОГОДЫ в Geraldton Airport

Время (UTC), дата Ветер
(напр.,м/с)
 
Видим.   Явления Облачность Т
(С)
Тd
(С)
f
(%)
Тe
(С)
Тes
(С)
Комфортность P
(гПа)
Po
(гПа)
Тmin
(С)
Tmax
(С)
R
(мм)
R24
(мм)
S
(см)
01 13.01 В 15 н/о н/о +33.9 +1.6 13 +31 +31 жарко 1008.5 1005.0
03 13.01 В 10 н/о н/о +38.6 +0.1 9 +35 +35 очень
жарко
1007.9 1004.4
04 13.01 В 7 н/о н/о +39.5 +0.8 9 +36 +36 очень
жарко
1007.1 1003.6
06 13.01 В 6 н/о н/о +40.3 -2.1 7 +36 +36 очень
жарко
1005.3 1001.9
07 13.01 ЮВ 6 н/о н/о +42.3 -2.7 6 +38 +38 очень
жарко
1004.6 1001.2
09 13.01 Ю 11 н/о н/о +33.6 +12.6 28 +34 +34 очень
жарко
1004.0 1000.6
10 13.01 Ю 9 н/о н/о +31.1 +15.1 38 +33 +33 душно 1004.5 1001.1
12 13.01 Ю 5 н/о н/о +24.6 +18.5 69 +29 +29 душно 1005.9 1002.4
13 13.01 Ю 4 н/о н/о +23.3 +19.0 77 +30 +30 очень
душно
1006.3 1002.8
15 13.01 ЮВ 4 н/о н/о +21.6 +19.0 85 +26 +26 душно 1006.5 1003.0
16 13.01 ЮВ 2 9000 м н/о +21.1 +18.9 87 +25 +25 комфорт 1006.2 1002.7
18 13.01 В 7 н/о н/о +29.8 +12.7 35 +31 +31 жарко 1005.8 1002.3
19 13.01 В 7 н/о н/о +30.5 +13.3 35 +32 +32 жарко 1006.1 1002.6
21 13.01 В 8 н/о н/о +29.2 +15.3 43 +32 +32 душно 1007.2 1003.7
22 13.01 В 8 н/о 10/10 1500 м
[]
+25.7 +17.1 59 +30 +30 душно 1007.8 1004.3
00 14.01 ЮВ 6 н/о н/о +24.3 +19.4 74 +29 +29 душно 1008.5 1005.0
01 14.01 В 6 н/о {туман} 10/0
[]
+30.1 +15.4 41 +33 +35 душно 1008.4 1004.9 +20.3
03 14.01 В 11 н/о н/о +34.2 +17.0 36 +37 +37 очень
душно
1007.5 1004.0
04 14.01 В 10 н/о 10/0
[]
+34.5 +15.9 33 +37 +37 очень
душно
1007.1 1003.6
06 14.01 СВ 13 н/о н/о +31.0 +19.4 50 +37 +37 очень
душно
1007.0 1003.5
07 14.01 СВ 8 н/о туман местами 10/10 1000 м
[]
+25.2 +23.3 89 +34 +34 очень
душно
1007.3 1003.8
09 14.01 В 10 н/о н/о +25.3 +23.2 88 +34 +34 очень
душно
1006.6 1003.1
10 14.01 В 9 н/о {туман} 10/10 1500 м
[]
+25.3 +22.8 86 +33 +33 очень
душно
1006.8 1003.3
12 14.01 ЮВ 8 н/о н/о +24.3 +22.7 91 +32 +32 очень
душно
1007.2 1003.7
13 14.01 ЮВ 9 н/о {туман} 10/0 2000 м
[]
+24.2 +22.5 90 +32 +32 очень
душно
1006.9 1003.4 +35.4
15 14.01 ЮВ 8 н/о н/о +23.2 +21.8 92 +31 +31 очень
душно
1006.2 1002.7
16 14.01 В 14 6000 м туман 10/10 1000 м
[]
+22.8 +21.6 93 +30 +30 очень
душно
1006.1 1002.6
18 14.01 В 14 н/о н/о +22.7 +21.0 90 +30 +30 очень
душно
1003.7 1000.3
19 14.01 В 13 н/о в посл. час дождь {туман} 8/8 1000 м
[]
+22.5 +21.1 92 +30 +30 очень
душно
1003.7 1000.3
21 14.01 СВ 10 н/о н/о +22.7 +20.8 89 +30 +30 очень
душно
1004.1 1000.7
22 14.01 В 12 н/о {туман} 9/9 1500 м
[]
+22.9 +21.0 89 +30 +30 очень
душно
1004.3 1000.9
00 15.01 СВ 9 н/о н/о +24.6 +22.3 87 +32 +32 очень
душно
1005.0 1001.6
01 15.01 СВ 10 н/о {туман} 9/9 600 м
[]
+26.3 +23.4 84 +36 +36 очень
душно
1005.1 1001.7 +22.4
03 15.01 С 9 н/о н/о +28.3 +23.0 73 +38 +38 очень
душно
1005.2 1001.8
04 15.01 С 10 н/о 10/10 1000 м
[]
+28.9 +23.3 72 +39 +39 очень
душно
1005.0 1001.6
06 15.01 СЗ 9 н/о н/о +31.5 +24.6 67 +44 +44 опасность
перегрева
1004.4 1001.0
07 15.01 СЗ 10 н/о 3/0
[]
+28.0 +22.5 72 +37 +37 очень
душно
1004.3 1000.9
09 15.01 СЗ 10 н/о н/о +27.1 +21.8 73 +35 +35 очень
душно
1004.0 1000.6
10 15.01 СЗ 10 н/о н/о +25.8 +22.1 80 +33 +33 очень
душно
1004.2 1000.8
12 15.01 С 5 н/о н/о +23.5 +22.1 92 +30 +30 очень
душно
1005.3 1001.9
13 15.01 С 6 н/о 1/1 200 м
[]
+23.2 +22.0 93 +32 +32 очень
душно
1005.4 1002.0 +31.8
15 15.01 С 4 н/о н/о +23.5 +22.1 92 +30 +30 очень
душно
1005.5 1002.1
16 15.01 С 4 н/о 10/10 300 м
[]
+23.4 +21.8 91 +32 +32 очень
душно
1005.2 1001.8
18 15.01 С 6 н/о н/о +23.9 +21.8 88 +31 +31 очень
душно
1004.7 1001.3
19 15.01 С 6 н/о 10/10 300 м
[]
+23.9 +21.0 84 +30 +30 очень
душно
1004.8 1001.4
21 15.01 СЗ 6 н/о н/о +23.6 +21.1 86 +30 +30 очень
душно
1004.6 1001.2
22 15.01 С 5 н/о 10/10 600 м
[]
+23.6 +21.5 88 +30 +30 очень
душно
1005.2 1001.8
00 16.01 С 6 н/о н/о +24.8 +21.7 83 +32 +32 очень
душно
1005.9 1002.4
01 16.01 С 6 н/о 10/10 600 м
[]
+25.5 +21.6 79 +33 +33 очень
душно
1006.1 1002.6 +23.0
03 16.01 СЗ 9 н/о н/о +27.1 +22.3 75 +35 +35 очень
душно
1006.0 1002.5
04 16.01 СЗ 11 н/о 1/1 300 м
[]
+27.8 +21.6 69 +36 +36 очень
душно
1005.4 1002.0
06 16.01 СЗ 12 н/о н/о +28.2 +21.2 66 +36 +36 очень
душно
1005.0 1001.6
07 16.01 СЗ 13 н/о н/о +27.4 +21.0 68 +34 +34 очень
душно
1004.7 1001.3
09 16.01 СЗ 12 н/о н/о +26.3 +20.8 72 +33 +33 очень
душно
1004.3 1000.9
10 16.01 СЗ 10 н/о 1/1 300 м
[]
+25.2 +21.1 78 +32 +32 очень
душно
1005.0 1001.6
12 16.01 СЗ 7 н/о н/о +23.5 +21.6 89 +30 +30 очень
душно
1006.0 1002.5
13 16.01 СЗ 7 4000 м 10/10 100 м
[]
+22.9 +22.1 95 +31 +31 очень
душно
1006.5 1003.0 +29.5
15 16.01 СЗ 5 н/о н/о +22.9 +22.2 96 +31 +31 очень
душно
1006.7 1003.2
16 16.01 СЗ 6 н/о 10/10 200 м
[]
+22.9 +22.1 95 +31 +31 очень
душно
1006.5 1003.0
18 16.01 СЗ 4 н/о н/о +22.7 +22.0 96 +31 +31 очень
душно
1006.0 1002.5
19 16.01 З 4 н/о 10/10 200 м
[]
+22.2 +21.7 97 +29 +29 очень
душно
1006.0 1002.5
21 16.01 З 4 н/о н/о +21.5 +21.2 98 +27 +27 душно 1006.2 1002.7
22 16.01 СЗ 2 н/о в посл. час дождь {туман} 10/10 300 м
[]
+21.8 +21.6 99 +28 +28 душно 1006.6 1003.1
00 17.01 З 5 н/о н/о +22.3 +21.6 96 +29 +29 очень
душно
1007.6 1004.1
01 17.01 З 5 н/о {туман} 10/10 200 м
[]
+23.0 +22.2 95 +31 +31 очень
душно
1007.8 1004.3 +21.4
03 17.01 ЮЗ 7 н/о н/о +23.4 +21.3 88 +31 +31 очень
душно
1008.1 1004.6
04 17.01 ЮЗ 6 н/о 10/10 300 м
[]
+24.0 +20.9 83 +30 +30 очень
душно
1007.9 1004.4
06 17.01 ЮЗ 7 н/о н/о +25.6 +19.9 71 +31 +31 очень
душно
1007.8 1004.3
07 17.01 ЮЗ 6 н/о 10/10 300 м
[]
+25.3 +20.1 73 +31 +31 очень
душно
1007.9 1004.4
09 17.01 Ю 7 н/о н/о +24.5 +20.4 78 +30 +30 очень
душно
1007.4 1003.9
10 17.01 ЮЗ 7 н/о 9/9 300 м
[]
+23.6 +20.1 81 +29 +29 душно 1007.4 1003.9
12 17.01 Ю 7 н/о н/о +21.6 +20.2 92 +27 +27 душно 1008.7 1005.2
13 17.01 Ю 5 н/о 10/10 200 м
[]
+21.3 +20.8 97 +27 +27 душно 1009.3 1005.8 +27.6
15 17.01 Ю 5 н/о н/о +20.7 +20.2 97 +25 +25 комфорт 1010.3 1006.8
16 17.01 Ю 6 4000 м туман местами 10/10 100 м
[]
+20.3 +20.1 99 +24 +24 комфорт 1010.4 1006.9
18 17.01 Ю 6 н/о н/о +20.2 +20.0 99 +24 +24 комфорт 1009.8 1006.3
19 17.01 Ю 6 н/о {туман} 10/10 300 м
[]
+20.3 +20.0 98 +24 +24 комфорт 1009.5 1006.0
21 17.01 Ю 6 н/о н/о +20.7 +18.1 85 +24 +24 комфорт 1010.2 1006.7
22 17.01 Ю 5 н/о 9/9 600 м
[]
+20.6 +17.2 81 +24 +24 комфорт 1010.8 1007.3
00 18.01 ЮВ 5 н/о н/о +21.4 +18.6 84 +26 +26 душно 1011.6 1008.1
01 18.01 Ю 6 н/о 10/10 600 м
[]
+22.3 +17.7 75 +27 +27 душно 1011.9 1008.4 +20.0
03 18.01 Ю 8 н/о н/о +24.3 +17.1 64 +28 +28 душно 1012.0 1008.5
04 18.01 Ю 9 н/о 10/10 600 м
[]
+25.7 +18.1 63 +30 +30 душно 1011.2 1007.7
06 18.01 Ю 9 н/о н/о +25.7 +18.6 65 +31 +31 очень
душно
1010.6 1007.1
07 18.01 Ю 10 н/о 3/3 600 м
[]
+25.4 +18.8 67 +30 +31 душно 1010.2 1006.7
09 18.01 Ю 11 н/о н/о +24.7 +18.9 70 +30 +30 очень
душно
1009.5 1006.0
10 18.01 Ю 11 н/о н/о +23.8 +19.1 75 +29 +29 душно 1009.8 1006.3
12 18.01 Ю 9 н/о н/о +21.6 +19.2 86 +27 +27 душно 1010.8 1007.3
13 18.01 Ю 10 н/о 10/10 300 м
[]
+21.7 +19.3 86 +27 +27 душно 1011.6 1008.1 +27.2
15 18.01 Ю 7 н/о н/о +21.1 +19.0 88 +25 +25 комфорт 1012.0 1008.5
16 18.01 Ю 6 н/о н/о +20.5 +18.8 90 +24 +24 комфорт 1011.8 1008.3
18 18.01 ЮВ 4 н/о н/о +18.8 +17.3 91 +20 +20 1011.1 1007.6
19 18.01 ЮВ 5 н/о н/о +18.3 +17.0 92 +19 +19 1011.0 1007.5
21 18.01 ЮВ 5 н/о н/о +17.4 +16.6 95 +17 +17 1010.9 1007.4
22 18.01 ЮВ 5 н/о н/о +17.2 +16.6 96 +17 +17 1011.3 1007.8
00 19.01 В 8 н/о н/о +25.2 +16.9 60 +29 +29 душно 1011.6 1008.1
01 19.01 ЮВ 7 н/о н/о +28.0 +16.6 50 +32 +32 душно 1011.3 1007.8 +17.1
03 19.01 ЮВ 6 н/о н/о +32.5 +17.2 40 +36 +36 очень
душно
1010.1 1006.6
04 19.01 Ю 10 н/о н/о +30.6 +17.7 46 +35 +35 очень
душно
1009.2 1005.7
06 19.01 Ю 10 н/о н/о +30.3 +17.4 46 +34 +34 очень
душно
1008.3 1004.8
07 19.01 Ю 10 н/о н/о +29.1 +17.6 50 +33 +33 очень
душно
1008.1 1004.6
09 19.01 Ю 10 н/о н/о +26.8 +18.1 59 +31 +31 душно 1007.3 1003.8
10 19.01 Ю 10 н/о н/о +25.3 +18.5 66 +30 +30 душно 1007.2 1003.7
12 19.01 Ю 8 н/о н/о +22.8 +18.8 78 +29 +29 очень
душно
1008.4 1004.9
13 19.01 Ю 7 н/о н/о +22.6 +19.2 81 +29 +29 очень
душно
1008.8 1005.3 +33.6
15 19.01 Ю 6 н/о н/о +22.4 +19.9 86 +29 +29 очень
душно
1008.5 1005.0
16 19.01 Ю 5 н/о 3/0
[]
+22.1 +20.0 88 +28 +28 душно 1008.2 1004.7
18 19.01 Ю 4 н/о н/о +21.9 +20.4 91 +28 +28 душно 1007.7 1004.2
19 19.01 Ю 4 н/о 5/0
[]
+21.6 +20.2 92 +27 +27 душно 1007.4 1003.9
21 19.01 ЮВ 1 н/о н/о +20.3 +19.3 94 +26 +26 душно 1007.3 1003.8
22 19.01 штиль 0 н/о 6/0
[]
+20.8 +20.0 95 +25 +25 комфорт 1007.2 1003.7
00 20.01 Ю 2 н/о н/о +24.5 +21.0 81 +31 +31 очень
душно
1007.9 1004.4
01 20.01 Ю 3 н/о н/о +28.8 +20.5 61 +36 +36 очень
душно
1007.6 1004.1 +20.3

 

Местоположение метеостанции Geraldton Airport (Западная Австралия, Австралия): широта -28.80 долгота 114.70 высота над уровнем моря 35 м.

В архиве по умолчанию представлена погода в Geraldton Airport за последнюю неделю. Архивные данные за месяц целиком и за предыдущие месяцы, начиная с января 2011 года, Вы можете получить, выбрав интересующий диапазон дат из раскрывающегося списка и нажав кнопку "Ввод!".

Внимание! Время в таблицах - всемирное. Для получения местного времени необходимо прибавить поправку, которая в Geraldton Airport равна 8 ч.

Смотрите также архив погоды в соседних городах и на ближайших метеорологических станциях:

Погода в Morawa Airport (Западная Австралия, Австралия) (136 км)
Погода в Rottnest Island Lighthouse (Западная Австралия, Австралия) (188 км)
Погода в Dalwallinu (Западная Австралия, Австралия) (252 км)
Погода в Mount Magnet Aero (Западная Австралия, Австралия) (316 км)
Погода в Gingin Aero (Западная Австралия, Австралия) (318 км)
Погода в Shark Bay Airport (Западная Австралия, Австралия) (341 км)
Погода в Bullsbrook Pearce Amo (Западная Австралия, Австралия) (343 км)
Погода в Wanneroo (Западная Австралия, Австралия) (344 км)
Погода в Mount Lawley Perth Metro (Западная Австралия, Австралия) (365 км)
Погода в Swanbourne (Западная Австралия, Австралия) (365 км)

Пояснения к столбцам:

Ветер - указаны скорость ветра в м/с - средняя за 10 мин, порывы в срок и между сроками (в фигурных скобках) и направление, откуда дует ветер: С - северный, СВ - северо-восточный, В - восточный, ЮВ - юго-восточный, Ю - южный, ЮЗ - юго-западный, З - западный, СЗ - северо-западный.
Видимость - горизонтальная дальность видимости в метрах или километрах. При видимости от 1 до 10 км при отсутствии осадков обычно наблюдается дымка, при ухудшении видимости до 1 км и менее - туман. В сухую погоду видимость может ухудшаться дымом, пылью или мглою.
Явления - указаны атмосферные явления, наблюдавшиеся в срок или в последний час перед сроком; фигурными скобками обозначены явления, наблюдавшиеся между сроками (за 1-3 часа до срока); квадратными скобками обозначены град или гололедные отложения с указанием их диаметра в мм.
Облачность - указаны через наклонную черту общая и нижняя облачность в баллах и высота нижней границы облаков в метрах; квадратными скобками обозначены формы облаков: Ci - перистые, Cs - перисто-слоистые, Cc - перисто-кучевые, Ac - высококучевые, As - высокослоистые, Sc - слоисто-кучевые, Ns - слоисто-дождевые, Cu - кучевые, Cb - кучево-дождевые. Подробнее классификацию облаков см. в Атласе облаков (PDF).
T - Температура воздуха - температура, измеренная на высоте 2 м над землей.
Td - Температура точки росы - температура, при понижении до которой содержащийся в воздухе водяной пар достигнет насыщения.
f - Относительная влажность воздуха - влажноcть воздуха, измеренная на высоте 2 м над землей.
Te - Эффективная температура - температура, которую ощущает одетый по сезону человек в тени. Характеристика душности погоды. При расчете учитывается влияние влажности воздуха и скорости ветра на теплоощущения человека.
Tes - Эффективная температура на солнце - температура, которую ощущает человек, с поправкой на солнечный нагрев. Характеристика знойности погоды. Зависит от высоты солнца над горизонтом, облачности и скорости ветра. Ночью, в пасмурную погоду, а также при ветре 12 м/с и более поправка равна нулю.
P - Атмосферное давление - приведенное к уровню моря атмосферное давление.
Po - Атмосферное давление - измеренное на уровне метеостанции атмосферное давление.
Tmin - Минимальная температура - минимум температуры воздуха на высоте 2 м над землей.
Tmax - Максимальная температура - максимум температуры воздуха на высоте 2 м над землей.
R - Количество осадков - Количество выпавших осадков за период времени, мм. При наведении курсора мыши на число - период времени, за который выпало указанное количество осадков.
R24 - Количество осадков - Количество выпавших осадков за 24 часа, мм.
S - Снежный покров - Высота снежного покрова, см. При наведении курсора мыши на число - состояние снежного покрова и степень покрытия местности в баллах.